Regional Weather Roundup
Issued by NWS

Home | Current Version | Previous Version | Text Only | Print | Product List | Glossary On
Versions: 1 2 3 4 5 6 7 8 9 10 11 12 13 14 15 16 17 18 19 20 21 22 23 24 25 26 27 28 29 30 31 32 33 34 35 36 37 38 39 40 41 42 43 44 45 46 47 48 49 50
000
ASUS43 KMPX 211801
RWRMN
WEATHER ROUNDUP FOR MINNESOTA
NATIONAL WEATHER SERVICE TWIN CITIES/CHANHASSEN MN
1200 PM CST SAT JAN 21 2017


NOTE: "FAIR" INDICATES FEW OR NO CLOUDS BELOW 12,000 FEET WITH NO
SIGNIFICANT WEATHER AND/OR OBSTRUCTIONS TO VISIBILITY. N/A MEANS
CURRENT SKY AND/OR WEATHER CONDITIONS ARE NOT AVAILABLE.

MNZ060>063-068>070-211900-
   Twin Cities Metro

CITY           SKY/WX    TMP DP  RH WIND       PRES   REMARKS
TWIN CITIES    CLOUDY    37  35  92 E5        29.39F
6HR MIN TEMP:  35; 6HR MAX TEMP:  37; 6HR PCP: TRACE;

ST PAUL        CLOUDY    37  37 100 E6        29.41F
CRYSTAL        CLOUDY    38  33  82 E6        29.39F
BLAINE         CLOUDY    37  37 100 E6        29.40F FOG
LAKEVILLE        N/A     34  34 100 E5        29.39F FOG     WCI  30
EDEN PRAIRIE   CLOUDY    38  36  92 E8        29.38F
6HR MIN TEMP:  35; 6HR MAX TEMP:  38; 6HR PCP:  0.01;

SOUTH ST PAUL  CLOUDY    37  37  99 E6        29.39F FOG
LAKE ELMO      CLOUDY    36  36 100 E6        29.41F
$$
MNZ001>005-007-008-013>017-022>024-027-028-211900-
   Northwest Minnesota

CITY           SKY/WX    TMP DP  RH WIND       PRES   REMARKS
BEMIDJI        FOG       33  33 100 E5        29.44F VSB 1/2 WCI  29
HALLOCK        CLOUDY    37  36  93 E6        29.43F
ROSEAU         CLOUDY    36  30  80 E6        29.45F
WARROAD        CLOUDY    34  30  86 E7        29.47F WCI  28
THIEF RVR FALL CLOUDY    37  33  85 E8        29.43F
CROOKSTON      MIX PCPN  36  36 100 SE7       29.43S
FOSSTON        DRIZZLE   36  34  93 E7        29.43F
DETROIT LAKES  CLOUDY    36  34  93 SE6       29.41F
MOORHEAD       CLOUDY    36  34  93 S5        29.41F
PARK RAPIDS    CLOUDY    35  33  92 E7        29.40F WCI  29
MAHNOMEN       CLOUDY    35  33  94 E5        29.40F WCI  31
$$
MNZ006-009>011-018-025>026-211900-
   North Central Minnesota

CITY           SKY/WX    TMP DP  RH WIND       PRES   REMARKS
BAUDETTE       CLOUDY    34  33  96 E9        29.47S WCI  27
FLAG ISLAND    CLOUDY    34  34 100 E7        29.47F WCI  28
INTL FALLS     CLOUDY    35  33  92 E10       29.48F WCI  27
6HR MIN TEMP:  33; 6HR MAX TEMP:  35;

WASKISH        CLOUDY    36  36 100 E6        29.46F
BIG FORK       CLOUDY    36  34  93 SE3       29.47F
LONGVILLE      CLOUDY    36  36 100 E6        29.44F
GRAND RAPIDS   FOG       35  34  96 E3        29.47F VSB 1/2
CRANE LAKE     CLOUDY    36  34  93 CALM      29.52S
ORR            CLOUDY    36  32  87 CALM      29.46F
COOK           CLOUDY    36  34  93 E3        29.49S
WALKER         FOG       33  33  99 E6        29.44F VSB 1/4 WCI  27
$$
MNZ012-019>021-037-211900-
   Northeast Minnesota

CITY           SKY/WX    TMP DP  RH WIND       PRES   REMARKS
DULUTH         FOG       34  34 100 E7        29.45F VSB 3/4 WCI  28
6HR MIN TEMP:  34; 6HR MAX TEMP:  35; 6HR PCP: TRACE;

ELY            CLOUDY    36  34  93 SE6       29.49F
HIBBING        FOG       33  33 100 E8        29.46F VSB 3/4 WCI  26
EVELETH        CLOUDY    35  35  99 E6        29.48F FOG     WCI  30
DULUTH HARBOR  MIX PCPN  34  34 100 NE8       29.48F WCI  27
TWO HARBORS    CLOUDY    37  34  87 NE8       29.45F
SILVER BAY     LGT RAIN  36  36 100 NE6       29.47F
GRAND MARAIS     N/A     37  35  92 NE9       29.54F
G MARAIS ARPRT DRIZZLE   32  28  86 E7        29.51S WCI  26
$$
MNZ029>031-032-039>041-046>048-054>057-064-211900-
   West Central Minnesota

CITY           SKY/WX    TMP DP  RH WIND       PRES   REMARKS
FERGUS FALLS   CLOUDY    36  36 100 E6        29.43F
WHEATON        CLOUDY    43  43 100 E9        29.41F FOG
MORRIS         FOG       36  34  93 E10       29.38F VSB 1/2
ALEXANDRIA     FOG       34  34 100 E9        29.39F VSB 3/4 WCI  27
ELBOW LAKE     CLOUDY    34  34 100 SE9       29.40F FOG     WCI  26
WADENA         FOG       34  34 100 E3        29.41S VSB 1/2
GLENWOOD       FOG       34  34 100 NE10      29.39F VSB 1   WCI  26
APPLETON       FOG       36  34  93 E6        29.39S VSB 1/2
BENSON         CLOUDY    37  34  87 SE5       29.41S
ORTONVILLE     FOG       34  32  93 CALM      29.38F VSB 1/2
MADISON        FOG       37  37 100 E7        29.38F VSB 1/4
WILLMAR        DRIZZLE   36  36 100 CALM      29.40F
$$
MNZ033>034-036-042>043-049>051-058-059-211900-
   Central Minnesota

CITY           SKY/WX    TMP DP  RH WIND       PRES   REMARKS
ST CLOUD       FOG       34  34 100 E6        29.40F VSB 3/4 WCI  29
6HR MIN TEMP:  33; 6HR MAX TEMP:  34; 6HR PCP: TRACE;

SAUK CENTRE    CLOUDY    33  33 100 E7        29.40F FOG     WCI  27
PAYNESVILLE    LGT SNOW  34  34 100 E3        29.41S
AITKIN         FOG       37  34  87 E5        29.43F VSB 1/2
PINE RIVER     CLOUDY    34  34 100 E6        29.47F WCI  29
BRAINERD       LGT RAIN  35  34  96 E6        29.43F FOG     WCI  30
STAPLES        CLOUDY    34  34 100 CALM      29.42F FOG
LONG PRAIRIE   SNOW      32  32 100 NE5       29.42S VSB 1/4 WCI  27
LITTLE FALLS   CLOUDY    34  32  93 CALM      29.42F FOG
LITCHFIELD     FOG       36  36 100 E3        29.39F VSB 1/4
BUFFALO        CLOUDY    35  34  96 NE6       29.41F FOG     WCI  30
MAPLE LAKE     CLOUDY    36  36 100 E7        29.41F FOG
HUTCHINSON     FOG       36  36 100 NE6       29.39F VSB 1/4
$$
MNZ037-044-045-052-053-211900-
   East Central Minnesota

CITY           SKY/WX    TMP DP  RH WIND       PRES   REMARKS
PRINCETON      CLOUDY    36  36 100 NE3       29.42F FOG
MORA           DRIZZLE   34  32  93 NE3       29.45F
CAMBRIDGE      DRZL/FOG  37  36  93 NE5       29.40F VSB 1
RUSH CITY      DRIZZLE   36  34  93 NE5       29.43F
MOOSE LAKE     CLOUDY    34  34 100 NE5       29.43F WCI  30
HINCKLEY       DRIZZLE   36  36 100 NE3       29.43F
CLOQUET        DRIZZLE   36  34  93 E6        29.45F
MCGREGOR       CLOUDY    36  34  93 E6        29.45F
$$
MNZ071>073-080-081-089-090-097-098-211900-
   Southwest Minnesota

CITY           SKY/WX    TMP DP  RH WIND       PRES   REMARKS
MONTEVIDEO     FOG       34  34 100 SE6       29.40F VSB 3/4 WCI  29
GRANITE FALLS  FOG       37  37 100 E5        29.39F VSB 3/4
CANBY          FOG       36  36 100 CALM      29.38F VSB 1
MARSHALL       CLOUDY    35  34  96 SE6       29.38F FOG     WCI  30
REDWOOD FALLS  FOG       36  34  92 E5        29.38F VSB 1/4
OLIVIA         FOG       34  34 100 E6        29.38F VSB 3/4 WCI  29
PIPESTONE      FOG       36  36 100 S3        29.35S VSB 1/4
WINDOM         FOG       37  37 100 CALM      29.37S VSB 3/4
WORTHINGTON    FOG       36  36 100 S6        29.38S VSB 1/4
JACKSON        FOG       34  34 100 CALM      29.38S VSB 1/2
TRACY          FOG       37  37 100 CALM      29.37F VSB 1/2
SLAYTON        FOG       34  34 100 SE5       29.37S VSB 1/4 WCI  30
$$
MNZ065>067-074>077-082>085-091>093-211900-
   South Central Minnesota

CITY           SKY/WX    TMP DP  RH WIND       PRES   REMARKS
MANKATO        FOG       37  37 100 E8        29.38F VSB 1
NEW ULM        FOG       36  36 100 E5        29.38F VSB 1/4
ST JAMES       CLOUDY    36  36 100 S5        29.40R FOG
FAIRMONT       CLOUDY    36  36 100 SW6       29.39S FOG
GLENCOE        FOG       37  37 100 E3        29.38F VSB 3/4
OWATONNA       FOG       37  36  93 SE6       29.38F VSB 3/4
WASECA         FOG       36  36 100 E5        29.39F VSB 1/4
ALBERT LEA     FOG       37  37 100 SW3       29.37F VSB 1/2
$$
MNZ078>079-086>088-094>096-211900-
   Southeast Minnesota

CITY           SKY/WX    TMP DP  RH WIND       PRES   REMARKS
ROCHESTER      FOG       35  35 100 S6        29.38F VSB 1/4 WCI  30
6HR MIN TEMP:  33; 6HR MAX TEMP:  35; 6HR PCP:  0.05;

RED WING       CLOUDY    37  36  93 E5        29.40F FOG
STANTON        CLOUDY    37  35  93 E5        29.38F FOG
DODGE CENTER   FOG       36  34  93 CALM      29.38F VSB 1/4
WINONA         FOG       36  36 100 SE6       29.42F VSB 1
AUSTIN         FOG       36  36 100 CALM      29.38F VSB<1/4
PRESTON        FOG       37  36  97 S3        29.39S VSB<1/4
$$
ABBREVIATIONS USED IN REMARKS
   TC - TEMPERATURES IN CELSIUS
  WCI - WIND CHILL INDEX
   HX - HEAT INDEX
  VSB - VISIBILITY
$$



USA.gov is the U.S. government's official web portal to all federal, state and local government web resources and services.